When you browse on this site, cookies collect data to enhance your experience and personalize the content and advertising you see.
Visit our Privacy Policy to learn more. By continuing to use the site, you agree to this use of cookies and data.
  • en Belgique
  • Liste des pays
  • À 7 jours
  • Température de l'eau
  • Carte satellitaire
  • Carte météo
  • Widgets météo
  • user-avatar
    Se connecter

    Météo par heure à Zaharovka

    Ce jour, 26 Mai, Dimanche

    Heure Température Précipitation Vent Pression Humidité
    00:00 +11°C° 0 mm 3 m/s 737 mmHg 97%
    01:00 +12°C° 0 mm 2 m/s 737 mmHg 97%
    02:00 +10°C° 0 mm 2 m/s 737 mmHg 97%
    03:00 +10°C° 0 mm 2 m/s 737 mmHg 96%
    04:00 +12°C° 0 mm 2 m/s 737 mmHg 95%
    05:00 +12°C° 0 mm 2 m/s 738 mmHg 94%
    06:00 +13°C° 0 mm 2 m/s 738 mmHg 87%
    07:00 +14°C° 0 mm 3 m/s 738 mmHg 80%
    08:00 +16°C° 0 mm 3 m/s 738 mmHg 73%
    09:00 +17°C° 0 mm 3 m/s 738 mmHg 67%
    10:00 +18°C° 0 mm 4 m/s 738 mmHg 61%
    11:00 +19°C° 0 mm 4 m/s 738 mmHg 56%
    12:00 +19°C° 0 mm 4 m/s 738 mmHg 54%
    13:00 +20°C° 0 mm 4 m/s 738 mmHg 52%
    14:00 +20°C° 0 mm 4 m/s 738 mmHg 50%
    15:00 +20°C° 0 mm 3 m/s 738 mmHg 53%
    16:00 +20°C° 0 mm 3 m/s 737 mmHg 55%
    17:00 +19°C° 0 mm 2 m/s 737 mmHg 57%
    18:00 +17°C° 0 mm 2 m/s 737 mmHg 63%
    19:00 +15°C° 0 mm 1 m/s 737 mmHg 69%
    20:00 +13°C° 0 mm 1 m/s 737 mmHg 76%
    21:00 +13°C° 0 mm 1 m/s 737 mmHg 76%
    22:00 +12°C° 0 mm 1 m/s 737 mmHg 77%
    23:00 +12°C° 0 mm 1 m/s 736 mmHg 77%

    Demain, 27 Mai, Lundi

    Heure Température Précipitation Vent Pression Humidité
    00:00 +10°C° 0 mm 2 m/s 737 mmHg 81%
    01:00 +10°C° 0 mm 3 m/s 737 mmHg 85%
    02:00 +10°C° 0 mm 4 m/s 737 mmHg 88%
    03:00 +10°C° 0 mm 4 m/s 737 mmHg 87%
    04:00 +10°C° 0 mm 4 m/s 737 mmHg 86%
    05:00 +9°C° 0 mm 5 m/s 737 mmHg 85%
    06:00 +10°C° 0 mm 5 m/s 738 mmHg 81%
    07:00 +10°C° 0 mm 5 m/s 738 mmHg 78%
    08:00 +11°C° 0 mm 6 m/s 738 mmHg 74%
    09:00 +11°C° 0 mm 6 m/s 739 mmHg 70%
    10:00 +13°C° 0 mm 6 m/s 739 mmHg 67%
    11:00 +14°C° 0 mm 6 m/s 739 mmHg 64%
    12:00 +14°C° 0 mm 6 m/s 739 mmHg 65%
    13:00 +14°C° 0 mm 6 m/s 740 mmHg 67%
    14:00 +14°C° 0 mm 5 m/s 740 mmHg 68%
    15:00 +15°C° 0.1 mm 5 m/s 740 mmHg 70%
    16:00 +15°C° 0.1 mm 5 m/s 740 mmHg 72%
    17:00 +15°C° 0.1 mm 5 m/s 740 mmHg 74%
    18:00 +14°C° 0 mm 5 m/s 740 mmHg 79%
    19:00 +14°C° 0 mm 4 m/s 740 mmHg 84%
    20:00 +13°C° 0 mm 3 m/s 740 mmHg 88%
    21:00 +13°C° 0.4 mm 3 m/s 740 mmHg 91%
    22:00 +13°C° 0.4 mm 3 m/s 741 mmHg 94%
    23:00 +13°C° 0.4 mm 3 m/s 741 mmHg 96%

    Après-demain, 28 Mai, Mardi

    Heure Température Précipitation Vent Pression Humidité
    00:00 +13°C° 0 mm 3 m/s 741 mmHg 97%
    01:00 +12°C° 0 mm 3 m/s 741 mmHg 97%
    02:00 +13°C° 0 mm 2 m/s 742 mmHg 97%
    03:00 +13°C° 0 mm 3 m/s 742 mmHg 97%
    04:00 +13°C° 0 mm 3 m/s 742 mmHg 96%
    05:00 +13°C° 0 mm 3 m/s 743 mmHg 95%
    06:00 +14°C° 0 mm 3 m/s 743 mmHg 92%
    07:00 +16°C° 0 mm 3 m/s 743 mmHg 89%
    08:00 +17°C° 0 mm 3 m/s 743 mmHg 86%
    09:00 +19°C° 0.2 mm 4 m/s 743 mmHg 81%
    10:00 +20°C° 0.2 mm 4 m/s 744 mmHg 76%
    11:00 +21°C° 0.2 mm 4 m/s 744 mmHg 71%
    12:00 +22°C° 0.5 mm 4 m/s 744 mmHg 70%
    13:00 +22°C° 0.5 mm 4 m/s 744 mmHg 70%
    14:00 +23°C° 0.5 mm 4 m/s 744 mmHg 69%
    15:00 +24°C° 0.2 mm 3 m/s 744 mmHg 70%
    16:00 +24°C° 0.2 mm 3 m/s 744 mmHg 70%
    17:00 +24°C° 0.2 mm 2 m/s 744 mmHg 71%
    18:00 +21°C° 0.4 mm 2 m/s 744 mmHg 77%
    19:00 +20°C° 0.4 mm 2 m/s 744 mmHg 83%
    20:00 +18°C° 0.4 mm 2 m/s 744 mmHg 89%
    21:00 +18°C° 1.3 mm 3 m/s 744 mmHg 91%
    22:00 +18°C° 1.3 mm 3 m/s 744 mmHg 93%
    23:00 +18°C° 1.3 mm 3 m/s 743 mmHg 95%

    29 Mai, Mercredi

    Heure Température Précipitation Vent Pression Humidité
    00:00 +18°C° 0.2 mm 3 m/s 743 mmHg 95%
    01:00 +18°C° 0.2 mm 4 m/s 743 mmHg 95%
    02:00 +17°C° 0.2 mm 5 m/s 743 mmHg 94%
    03:00 +18°C° 0 mm 4 m/s 744 mmHg 94%
    04:00 +18°C° 0 mm 4 m/s 744 mmHg 93%
    05:00 +18°C° 0 mm 4 m/s 744 mmHg 93%
    06:00 +19°C° 0 mm 4 m/s 744 mmHg 89%
    07:00 +20°C° 0 mm 4 m/s 745 mmHg 85%
    08:00 +22°C° 0 mm 5 m/s 745 mmHg 80%
    09:00 +23°C° 0 mm 5 m/s 745 mmHg 74%
    10:00 +25°C° 0 mm 5 m/s 745 mmHg 67%
    11:00 +27°C° 0 mm 6 m/s 745 mmHg 61%
    12:00 +27°C° 0 mm 6 m/s 745 mmHg 59%
    13:00 +28°C° 0 mm 6 m/s 745 mmHg 56%
    14:00 +28°C° 0 mm 6 m/s 745 mmHg 54%
    15:00 +28°C° 0 mm 5 m/s 745 mmHg 57%
    16:00 +28°C° 0 mm 4 m/s 745 mmHg 60%
    17:00 +27°C° 0 mm 4 m/s 744 mmHg 63%
    18:00 +26°C° 0 mm 4 m/s 745 mmHg 68%
    19:00 +23°C° 0 mm 4 m/s 745 mmHg 73%
    20:00 +22°C° 0 mm 4 m/s 745 mmHg 78%
    21:00 +21°C° 0 mm 4 m/s 745 mmHg 80%
    22:00 +21°C° 0 mm 4 m/s 746 mmHg 81%
    23:00 +20°C° 0 mm 4 m/s 746 mmHg 83%

    30 Mai, Jeudi

    Heure Température Précipitation Vent Pression Humidité
    00:00 +19°C° 0 mm 4 m/s 746 mmHg 86%
    01:00 +19°C° 0 mm 4 m/s 746 mmHg 89%
    02:00 +18°C° 0 mm 3 m/s 746 mmHg 92%
    03:00 +18°C° 0 mm 4 m/s 746 mmHg 90%
    04:00 +19°C° 0 mm 4 m/s 746 mmHg 89%
    05:00 +19°C° 0 mm 4 m/s 746 mmHg 88%
    06:00 +21°C° 0 mm 4 m/s 746 mmHg 83%
    07:00 +22°C° 0 mm 4 m/s 746 mmHg 78%
    08:00 +23°C° 0 mm 5 m/s 746 mmHg 73%
    09:00 +25°C° 0 mm 5 m/s 746 mmHg 68%
    10:00 +26°C° 0 mm 5 m/s 746 mmHg 63%
    11:00 +27°C° 0 mm 6 m/s 746 mmHg 57%
    12:00 +27°C° 0.4 mm 5 m/s 746 mmHg 59%
    13:00 +27°C° 0.4 mm 5 m/s 746 mmHg 61%
    14:00 +27°C° 0.4 mm 5 m/s 746 mmHg 63%
    15:00 +26°C° 0.7 mm 4 m/s 746 mmHg 68%
    16:00 +25°C° 0.7 mm 4 m/s 746 mmHg 73%
    17:00 +24°C° 0.7 mm 3 m/s 745 mmHg 78%
    18:00 +22°C° 0.1 mm 3 m/s 746 mmHg 81%
    19:00 +21°C° 0.1 mm 2 m/s 746 mmHg 85%
    20:00 +20°C° 0.1 mm 1 m/s 746 mmHg 89%
    21:00 +20°C° 0 mm 1 m/s 746 mmHg 90%
    22:00 +19°C° 0 mm 1 m/s 746 mmHg 92%
    23:00 +19°C° 0 mm 1 m/s 746 mmHg 93%

    31 Mai, Vendredi

    Heure Température Précipitation Vent Pression Humidité
    00:00 +18°C° 0 mm 1 m/s 746 mmHg 95%
    01:00 +18°C° 0 mm 1 m/s 747 mmHg 96%
    02:00 +16°C° 0 mm 1 m/s 747 mmHg 98%
    03:00 +16°C° 0.2 mm 2 m/s 747 mmHg 97%
    04:00 +16°C° 0.2 mm 2 m/s 747 mmHg 96%
    05:00 +16°C° 0.2 mm 3 m/s 747 mmHg 95%
    06:00 +14°C° 0.5 mm 3 m/s 747 mmHg 93%
    07:00 +12°C° 0.5 mm 4 m/s 747 mmHg 91%
    08:00 +11°C° 0.5 mm 4 m/s 747 mmHg 89%
    09:00 +13°C° 0 mm 4 m/s 747 mmHg 82%
    10:00 +14°C° 0 mm 4 m/s 747 mmHg 75%
    11:00 +16°C° 0 mm 3 m/s 747 mmHg 68%
    12:00 +17°C° 0 mm 3 m/s 747 mmHg 67%
    13:00 +18°C° 0 mm 3 m/s 747 mmHg 66%
    14:00 +18°C° 0 mm 2 m/s 747 mmHg 64%
    15:00 +18°C° 0 mm 2 m/s 746 mmHg 65%
    16:00 +19°C° 0 mm 2 m/s 746 mmHg 65%
    17:00 +20°C° 0 mm 1 m/s 746 mmHg 66%
    18:00 +17°C° 0.1 mm 2 m/s 746 mmHg 71%
    19:00 +16°C° 0.1 mm 2 m/s 745 mmHg 76%
    20:00 +15°C° 0.1 mm 2 m/s 745 mmHg 82%
    21:00 +14°C° 0.4 mm 2 m/s 745 mmHg 83%
    22:00 +14°C° 0.4 mm 2 m/s 745 mmHg 85%
    23:00 +13°C° 0.4 mm 1 m/s 745 mmHg 87%
    Voir plus